West Point, VA

4:27 AM EST on January 21, 2018 (GMT -0500)
West Point

Weather History for KFYJ - December, 2012

Change the Weather History Date:

Thursday, December 20, 2012

  Actual Average (KJGG) Record (KJGG)
Temperature  
Mean Temperature 43 °F -  
Max Temperature 59 °F 51 °F 68 °F (1984)
Min Temperature 28 °F 31 °F 12 °F (1981)
Degree Days  
Heating Degree Days 22    
Moisture  
Dew Point 40 °F    
Average Humidity 88    
Maximum Humidity 100    
Minimum Humidity 60    
Precipitation  
Precipitation 0.20 in - - ()
Sea Level Pressure  
Sea Level Pressure 30.03 in    
Wind  
Wind Speed 4 mph (ESE)    
Max Wind Speed 18 mph    
Max Gust Speed 31 mph    
Visibility 9 miles    
Events      
Averages and records for this station are not official NWS values.
T = Trace of Precipitation, MM = Missing Value Source: NWS Daily Summary

Daily Weather History Graph

Daily Weather History Graph

Search for Another Location

Airport or City:

Trip Planner

Search our weather history database for the weather conditions in past years. The results will help you decide how hot, cold, wet, or windy it might be!

Date:

Astronomy

Dec. 20, 2012 Rise Set
Actual Time 7:17 AM EST 4:52 PM EST
Civil Twilight 6:48 AM EST 5:21 PM EST
Nautical Twilight 6:15 AM EST 5:54 PM EST
Astronomical Twilight 5:43 AM EST 6:26 PM EST
Moon 12:03 PM EST (12/20) 12:08 AM EST (12/20)
Length of Visible Light 10h 32m
Length of Day
9h 34m
First Quarter, 55% of the Moon is Illuminated
Dec 20
First Quarter
Dec 28
Full
Jan 4
Last Quarter
Jan 11
New
Jan 18
First Quarter

Hourly Weather History & Observations

Time (EST) Temp. Windchill Dew Point Humidity Pressure Visibility Wind Dir Wind Speed Gust Speed Precip Events Conditions
12:15 AM 35.1 °F - 35.1 °F 100% 30.20 in 10.0 mi Calm Calm - N/A   Clear
12:35 AM 32.5 °F - 32.2 °F 99% 30.19 in 10.0 mi Calm Calm - N/A   Clear
12:55 AM 32.7 °F - 32.5 °F 99% 30.20 in 5.0 mi Calm Calm - N/A   Clear
1:15 AM 32.7 °F - 32.5 °F 99% 30.20 in 10.0 mi Calm Calm - N/A   Clear
1:35 AM 33.8 °F - 33.8 °F 100% 30.20 in 10.0 mi Calm Calm - N/A   Clear
1:55 AM 33.4 °F - 33.4 °F 100% 30.19 in 10.0 mi Calm Calm - N/A   Clear
2:15 AM 32.0 °F - 32.0 °F 100% 30.20 in 10.0 mi Calm Calm - N/A   Clear
2:35 AM 33.1 °F - 33.1 °F 100% 30.21 in 10.0 mi Calm Calm - N/A   Clear
2:55 AM 33.1 °F - 33.1 °F 100% 30.21 in 7.0 mi Calm Calm - N/A   Clear
3:15 AM 32.0 °F - 32.0 °F 100% 30.21 in 10.0 mi Calm Calm - N/A   Clear
3:35 AM 31.8 °F - 31.8 °F 100% 30.21 in 10.0 mi Calm Calm - N/A   Clear
3:55 AM 31.8 °F - 31.8 °F 100% 30.21 in 7.0 mi Calm Calm - N/A   Clear
4:15 AM 31.6 °F - 31.6 °F 100% 30.21 in 10.0 mi Calm Calm - N/A   Clear
4:35 AM 32.0 °F - 32.0 °F 100% 30.21 in 10.0 mi Calm Calm - N/A   Clear
4:55 AM 32.0 °F - 32.0 °F 100% 30.21 in 10.0 mi Calm Calm - N/A   Clear
5:15 AM 31.6 °F - 31.6 °F 100% 30.21 in 7.0 mi Calm Calm - N/A   Clear
5:35 AM 30.9 °F - 30.9 °F 100% 30.22 in 10.0 mi Calm Calm - N/A   Clear
5:55 AM 31.1 °F - 31.1 °F 100% 30.23 in 4.0 mi Calm Calm - N/A   Clear
6:15 AM 30.6 °F - 30.6 °F 100% 30.23 in 10.0 mi Calm Calm - N/A   Clear
6:35 AM 31.1 °F - 31.1 °F 100% 30.23 in 7.0 mi Calm Calm - N/A   Clear
6:55 AM 31.3 °F 26.6 °F 31.3 °F 100% 30.22 in 7.0 mi ENE 4.6 mph - N/A   Clear
7:15 AM 29.8 °F - 29.8 °F 100% 30.22 in 7.0 mi Calm Calm - N/A   Clear
7:35 AM 28.9 °F - 28.9 °F 100% 30.22 in 7.0 mi Calm Calm - N/A   Clear
7:55 AM 31.1 °F - 31.1 °F 100% 30.22 in 5.0 mi Calm Calm - N/A   Clear
8:15 AM 32.0 °F - 32.0 °F 100% 30.21 in 7.0 mi Calm Calm - N/A   Clear
8:35 AM 34.2 °F - 34.2 °F 100% 30.21 in 7.0 mi Calm Calm - N/A   Clear
8:55 AM 37.2 °F - 37.2 °F 100% 30.21 in 7.0 mi Calm Calm - N/A   Clear
9:15 AM 41.9 °F 40.0 °F 41.9 °F 100% 30.19 in 10.0 mi East 3.5 mph - N/A   Clear
9:35 AM 44.1 °F 40.8 °F 40.5 °F 87% 30.19 in 10.0 mi East 5.8 mph - N/A   Clear
9:55 AM 46.0 °F 41.4 °F 40.8 °F 82% 30.19 in 10.0 mi East 9.2 mph - N/A   Clear
10:15 AM 46.6 °F - 38.3 °F 73% 30.17 in 10.0 mi East 8.1 mph - N/A   Clear
10:35 AM 49.1 °F - 37.6 °F 64% 30.16 in 10.0 mi East 12.7 mph 17.3 mph N/A   Clear
10:55 AM 49.6 °F - 36.3 °F 60% 30.15 in 10.0 mi ESE 11.5 mph 17.3 mph N/A   Clear
11:15 AM 49.6 °F - 36.1 °F 60% 30.15 in 10.0 mi ESE 9.2 mph - N/A   Clear
11:35 AM 50.0 °F - 36.9 °F 61% 30.14 in 10.0 mi SE 6.9 mph - N/A   Clear
11:55 AM 50.0 °F - 36.9 °F 61% 30.13 in 10.0 mi SSE 6.9 mph - N/A   Clear
12:15 PM 50.0 °F - 38.5 °F 65% 30.12 in 10.0 mi SSE 9.2 mph - N/A   Clear
12:35 PM 50.0 °F - 38.7 °F 65% 30.11 in 10.0 mi SE 9.2 mph - N/A   Clear
12:55 PM 50.4 °F - 38.1 °F 63% 30.08 in 10.0 mi ESE 9.2 mph - N/A   Clear
1:15 PM 50.0 °F - 38.3 °F 64% 30.09 in 10.0 mi ESE 6.9 mph - N/A   Clear
1:35 PM 50.4 °F - 39.4 °F 66% 30.09 in 10.0 mi ESE 6.9 mph - N/A   Clear
1:55 PM 51.3 °F - 40.1 °F 66% 30.08 in 10.0 mi East 8.1 mph - N/A   Clear
2:15 PM 50.5 °F - 40.5 °F 68% 30.06 in 10.0 mi ESE 9.2 mph - N/A   Clear
2:35 PM 50.4 °F - 41.4 °F 71% 30.04 in 10.0 mi ESE 9.2 mph - N/A   Clear
2:55 PM 50.2 °F - 42.4 °F 75% 30.03 in 10.0 mi ESE 6.9 mph - N/A   Clear
3:15 PM 49.3 °F - 42.4 °F 77% 30.01 in 10.0 mi ESE 10.4 mph - N/A   Clear
3:35 PM 49.1 °F - 42.3 °F 77% 30.00 in 10.0 mi ESE 6.9 mph 10.4 mph N/A   Clear
3:55 PM 49.1 °F - 42.4 °F 78% 29.99 in 10.0 mi East 11.5 mph - N/A   Clear
4:15 PM 49.1 °F - 42.8 °F 79% 29.97 in 10.0 mi ESE 10.4 mph - N/A   Clear
4:35 PM 49.1 °F - 42.8 °F 79% 29.96 in 10.0 mi ESE 11.5 mph - N/A   Clear
4:55 PM 49.1 °F - 43.2 °F 80% 29.96 in 10.0 mi ESE 8.1 mph - N/A   Clear
5:15 PM 49.1 °F - 43.5 °F 81% 29.96 in 10.0 mi East 8.1 mph - N/A   Mostly Cloudy
5:35 PM 49.1 °F - 43.9 °F 82% 29.93 in 10.0 mi East 11.5 mph - N/A   Mostly Cloudy
5:55 PM 49.5 °F - 44.6 °F 83% 29.90 in 10.0 mi ESE 12.7 mph - N/A   Mostly Cloudy
6:15 PM 50.0 °F - 45.0 °F 83% 29.89 in 10.0 mi ESE 15.0 mph - N/A   Mostly Cloudy
6:35 PM 50.4 °F - 45.5 °F 83% 29.90 in 10.0 mi ESE 11.5 mph 17.3 mph N/A   Overcast
6:55 PM 50.5 °F - 45.9 °F 84% 29.86 in 10.0 mi ESE 12.7 mph - N/A   Overcast
7:15 PM 50.9 °F - 46.0 °F 83% 29.84 in 10.0 mi ESE 15.0 mph 21.9 mph N/A   Overcast
7:35 PM 51.4 °F - 46.8 °F 84% 29.83 in 10.0 mi SE 11.5 mph 17.3 mph N/A   Overcast
7:55 PM 50.9 °F - 48.0 °F 90% 29.81 in 10.0 mi ESE 16.1 mph 23.0 mph N/A   Overcast
8:15 PM 51.3 °F - 48.6 °F 90% 29.79 in 10.0 mi ESE 18.4 mph 23.0 mph N/A   Overcast
8:35 PM 51.4 °F - 49.5 °F 93% 29.77 in 10.0 mi ESE 12.7 mph 19.6 mph N/A   Overcast
8:55 PM 51.8 °F - 50.5 °F 95% 29.74 in 10.0 mi ESE 11.5 mph 18.4 mph 0.01 in   Overcast
9:15 PM 52.3 °F - 51.8 °F 98% 29.72 in 5.0 mi SE 12.7 mph 20.7 mph 0.02 in   Overcast
9:35 PM 52.9 °F - 52.7 °F 99% 29.70 in 5.0 mi SE 16.1 mph 23.0 mph 0.04 in   Overcast
9:55 PM 53.6 °F - 53.6 °F 100% 29.65 in 5.0 mi ESE 16.1 mph 25.3 mph 0.08 in   Overcast
10:15 PM 54.5 °F - 54.5 °F 100% 29.61 in 5.0 mi ESE 15.0 mph 25.3 mph 0.03 in   Overcast
10:35 PM 54.9 °F - 54.9 °F 100% 29.58 in 7.0 mi SE 16.1 mph 23.0 mph 0.06 in   Overcast
10:55 PM 55.4 °F - 55.4 °F 100% 29.57 in 5.0 mi SE 17.3 mph 23.0 mph 0.09 in   Overcast
11:15 PM 56.5 °F - 56.5 °F 100% 29.53 in 7.0 mi SE 15.0 mph 24.2 mph 0.02 in   Overcast
11:35 PM 58.1 °F - 58.1 °F 100% 29.50 in 10.0 mi SE 18.4 mph 31.1 mph 0.02 in   Overcast
11:55 PM 58.6 °F - 58.6 °F 100% 29.49 in 7.0 mi SSE 18.4 mph 27.6 mph 0.02 in   Overcast